Wind_Speed
6 6 12 8 4 4 4 6 11 10 14 15 15 12 16 19 14 13 5 6 7 7 10 11 14 16 13 11 7 2 2 10 15 21 28 28 25 24 26 29 31 32 28
14 6 6 8 6 2 3 3 7 8 13 13 15 12 12 16 16 16 14 9 6 4 3 9 12 9 9 10 5 2 7 17 17 24 28 26 26 25 26 25 27 29 28
23 15 16 10 3 2 7 4 4 7 14 15 13 14 10 13 16 13 15 14 16 9 3 5 4 7 9 9 5 7 18 20 21 26 27 31 28 27 24 24 23 25 26
27 26 15 7 4 2 2 2 4 8 12 13 13 15 13 10 14 16 13 16 17 19 14 5 4 5 8 9 9 17 21 24 27 29 31 29 27 25 24 24 24 23 23
19 18 14 8 5 3 1 2 5 5 6 9 12 14 14 11 13 16 16 15 17 19 19 13 9 7 9 9 13 21 24 25 26 27 27 27 26 26 25 26 25 24 24
12 13 9 6 4 4 2 0 4 2 6 6 8 15 12 15 15 15 18 15 16 18 19 20 13 10 9 12 14 20 22 25 25 24 23 24 24 24 23 24 24 26 27
9 8 8 7 7 8 8 7 6 2 5 2 6 9 9 15 15 13 16 17 15 18 19 20 20 15 12 12 14 17 19 20 22 22 22 22 23 24 24 25 25 25 25
6 3 5 5 9 16 6 13 9 6 7 1 3 3 8 9 13 13 12 14 13 17 18 18 20 21 17 14 13 16 17 18 18 20 22 22 23 26 27 26 26 25 25
7 4 5 7 12 16 8 14 8 6 2 2 1 4 1 4 5 11 12 10 11 14 17 17 18 20 21 17 15 14 15 17 17 20 23 24 25 28 28 26 24 25 24
9 12 7 12 19 11 11 10 9 10 10 6 3 5 3 4 2 3 7 12 5 9 12 14 14 16 19 22 19 16 17 16 19 21 23 23 25 26 26 26 26 24 21
11 14 13 8 11 11 10 13 8 11 11 9 8 6 6 5 3 4 5 9 8 4 6 7 10 12 14 17 21 22 19 20 21 21 23 24 24 25 26 25 23 25 31
12 14 16 12 13 13 14 16 16 15 14 15 15 14 12 12 6 9 5 5 4 4 4 1 3 6 9 10 14 18 22 21 20 20 21 24 24 25 26 29 31 32 32
6 6 8 13 12 15 16 17 20 22 21 21 20 19 17 15 14 17 12 9 9 8 7 5 4 2 4 5 6 11 15 18 20 22 24 26 27 29 30 30 28 26 24
9 6 6 4 5 12 16 19 20 21 25 27 25 22 23 20 14 16 15 11 13 10 10 9 9 8 5 3 4 4 6 11 15 17 18 20 21 21 21 22 21 19 18
12 10 10 9 9 9 9 11 14 15 16 20 23 25 25 26 22 19 20 17 16 15 16 13 12 12 10 9 8 7 7 8 11 14 16 16 17 17 17 16 16 14 13
19 20 16 13 12 16 16 16 18 20 20 18 17 20 23 25 28 26 24 23 21 17 18 17 16 14 15 13 13 11 10 11 11 12 12 13 14 16 16 16 16 15 15
15 11 14 14 17 23 24 23 25 23 21 21 22 20 19 21 27 29 28 26 24 24 24 21 19 16 18 19 19 16 15 15 14 14 13 13 15 16 17 16 15 14 14
19 22 20 20 22 25 21 22 22 26 27 27 25 26 25 22 23 26 31 32 31 29 29 31 29 26 23 24 24 20 19 19 18 18 18 17 18 19 19 19 16 15 14
20 22 25 27 30 29 29 27 25 25 22 27 32 31 31 32 28 27 25 30 30 28 32 36 35 31 28 29 26 26 25 24 23 20 22 21 20 21 21 21 20 19 18
23 25 28 31 31 32 33 34 34 33 31 30 28 32 37 36 35 33 31 33 35 31 27 36 38 34 32 31 32 30 30 29 29 26 22 24 23 23 24 25 25 24 23
30 32 34 34 35 37 37 37 38 37 36 38 37 37 35 37 43 42 38 37 37 35 34 30 41 40 37 35 33 31 33 33 30 28 24 26 27 26 22 25 27 29 31
35 37 39 40 41 40 41 41 41 41 39 38 40 41 41 42 41 43 45 42 41 36 35 36 33 40 45 43 38 35 35 34 31 30 29 30 33 31 29 28 29 29 32
45 46 46 46 47 47 46 46 45 45 44 43 43 46 48 45 44 44 47 47 46 43 41 38 37 38 40 47 47 46 42 41 38 35 38 34 37 36 31 28 26 27 30
52 53 53 54 53 53 52 52 50 49 47 47 47 49 54 56 52 51 47 49 50 49 46 42 43 40 40 43 49 51 51 49 48 47 46 46 43 38 35 35 33 29 30
61 62 61 62 62 62 59 57 51 51 53 53 53 52 56 61 63 59 53 48 50 54 50 49 45 46 43 43 47 52 55 54 54 53 48 47 48 46 43 42 39 37 35
68 70 71 70 68 68 66 62 57 53 55 60 62 61 58 60 65 68 63 59 52 53 52 53 52 48 47 46 47 48 51 57 56 55 55 53 49 49 46 42 39 37 39
Wind_Direction
255 241 203 223 264 357 20 33 24 38 40 24 51 46 45 41 46 55 106 306 292 278 269 285 316 316 319 318 320 333 224 156 152 153 157 151 151 150 157 158 161 163 169
195 162 234 236 255 318 338 3 15 30 26 30 29 47 42 43 44 47 46 38 14 325 294 285 296 332 335 353 0 61 136 135 136 146 149 151 148 147 146 152 158 166 169
197 195 218 223 262 162 357 307 9 24 32 37 25 36 57 51 47 42 43 40 38 28 307 280 328 5 0 19 55 101 125 128 130 139 138 137 139 138 140 145 150 159 168
197 198 193 194 177 326 0 306 354 32 22 48 40 18 32 56 49 44 41 48 47 42 42 18 10 24 29 37 85 118 122 122 127 130 133 134 136 136 135 140 144 150 156
175 175 188 188 193 302 101 219 29 84 35 51 44 32 12 32 51 41 42 48 52 48 45 46 46 38 54 64 105 128 125 126 128 130 135 135 135 137 129 129 132 137 142
156 172 182 198 217 212 258 2 22 68 31 65 49 40 47 25 29 43 35 40 53 50 49 53 57 57 61 80 111 134 134 133 134 135 137 142 141 142 135 132 134 137 139
187 190 197 213 182 190 202 259 213 291 14 34 22 24 0 19 33 31 28 32 44 49 48 57 58 67 73 82 110 131 145 145 144 145 143 145 151 149 144 141 139 140 141
188 248 218 219 199 217 226 210 236 249 310 295 330 55 44 37 30 34 36 31 38 46 46 57 64 66 75 82 105 132 137 144 152 157 156 152 152 154 153 150 146 144 143
197 193 239 256 216 225 250 217 221 232 229 283 136 41 341 354 3 21 28 37 34 43 37 47 58 68 72 85 93 110 135 138 139 147 149 150 151 154 152 150 148 148 148
232 239 250 227 220 238 245 234 216 219 223 230 248 235 301 319 331 335 8 9 39 45 34 37 48 62 73 82 92 99 104 128 136 137 145 147 146 148 148 147 147 148 152
232 240 255 254 223 237 231 227 232 230 247 260 223 242 262 260 306 304 7 356 4 60 31 30 44 58 63 75 84 93 106 112 118 125 134 139 143 145 145 145 149 147 142
244 250 249 236 227 244 237 238 250 253 250 251 241 243 259 258 266 277 258 279 244 157 114 65 49 58 62 75 88 94 96 101 115 123 128 133 138 142 142 140 140 142 143
217 251 249 243 242 243 242 241 251 259 259 269 261 252 253 258 243 242 248 253 215 198 170 186 186 144 87 73 89 104 108 110 112 116 121 126 132 137 139 140 143 146 151
211 223 239 270 256 246 246 254 261 264 269 266 262 259 261 257 257 252 242 236 235 232 222 203 205 198 197 173 150 142 143 132 132 131 132 133 134 137 141 146 152 160 164
235 247 250 240 244 239 246 258 265 277 284 280 264 266 261 248 254 250 245 247 238 225 232 221 209 210 210 202 187 190 180 170 164 158 154 152 151 155 161 165 170 176 181
277 262 249 250 251 252 252 256 262 266 269 275 275 274 263 251 246 250 243 241 241 240 220 223 220 221 220 213 209 199 194 194 186 180 176 176 178 181 181 184 188 190 196
260 263 275 283 273 262 263 267 269 268 267 268 261 264 266 261 256 246 245 245 246 242 238 228 222 226 231 222 211 213 207 209 208 208 203 196 195 196 195 191 187 190 194
255 260 267 267 286 296 282 273 276 265 264 260 258 254 256 263 261 259 254 247 249 245 242 234 238 242 235 230 224 221 222 218 217 214 211 210 213 211 205 202 208 214 216
257 261 268 274 281 278 276 270 274 276 275 263 257 257 257 257 258 262 261 247 246 251 247 237 240 244 239 229 223 226 224 221 223 227 224 221 222 220 221 224 229 234 240
287 285 282 284 286 280 278 276 276 276 272 268 265 261 259 254 253 255 255 248 247 251 254 237 234 235 236 230 227 226 226 225 224 228 233 231 233 233 233 237 241 245 250
291 294 293 292 292 293 289 277 274 275 276 275 267 261 263 262 255 251 250 249 248 249 248 242 235 231 230 229 226 236 232 232 233 234 239 235 234 235 238 242 243 247 248
288 292 294 293 293 291 290 286 276 267 271 276 274 267 260 258 253 248 247 247 245 247 247 243 238 236 232 232 230 236 238 237 232 230 230 243 243 238 239 246 250 257 254
289 291 291 292 292 292 291 287 280 268 265 269 274 270 262 258 252 248 246 247 245 246 247 244 242 239 234 233 236 238 236 237 234 229 227 236 246 244 245 246 254 261 253
293 293 293 294 292 291 290 287 281 272 267 269 274 273 263 256 252 248 245 243 243 241 241 243 242 240 238 235 234 236 238 237 238 237 237 237 238 240 247 249 252 260 258
291 292 292 292 291 291 289 286 279 271 268 271 272 275 264 256 251 248 244 244 240 239 237 240 239 240 236 236 235 234 236 239 240 240 237 238 241 245 247 251 253 256 255
290 291 291 291 291 290 288 284 280 274 273 273 275 273 265 254 251 245 239 238 235 237 235 236 238 238 239 238 233 235 235 236 239 242 243 240 240 241 242 248 250 251 253
Height
10977 10977 10978 10980 10980 10981 10980 10979 10978 10977 10974 10970 10965 10962 10960 10957 10954 10952 10949 10947 10945 10943 10941 10938 10935 10930 10926 10922 10918 10915 10913 10912 10914 10917 10921 10926 10932 10937 10941 10944 10948 10953 10957
10976 10977 10979 10980 10981 10982 10980 10979 10979 10977 10975 10972 10968 10964 10963 10959 10957 10953 10951 10948 10945 10941 10939 10936 10934 10930 10926 10922 10918 10916 10914 10915 10917 10919 10924 10929 10935 10940 10944 10948 10951 10955 10959
10972 10977 10978 10980 10982 10982 10981 10981 10980 10977 10975 10972 10970 10967 10965 10963 10960 10957 10954 10950 10945 10941 10939 10936 10933 10930 10927 10923 10920 10918 10918 10919 10922 10924 10928 10933 10938 10942 10946 10950 10953 10957 10960
10969 10974 10978 10980 10981 10982 10982 10981 10981 10978 10977 10974 10971 10968 10967 10965 10963 10960 10957 10953 10948 10944 10940 10938 10936 10932 10929 10926 10923 10922 10923 10925 10928 10931 10934 10938 10942 10946 10950 10953 10956 10960 10963
10971 10975 10978 10979 10981 10982 10981 10981 10980 10979 10978 10976 10973 10970 10969 10967 10966 10963 10961 10957 10953 10949 10944 10940 10938 10935 10933 10929 10927 10927 10928 10930 10934 10937 10940 10943 10946 10950 10954 10956 10959 10962 10965
10972 10975 10977 10979 10981 10981 10982 10980 10980 10979 10978 10976 10975 10973 10971 10969 10967 10966 10963 10961 10958 10954 10950 10944 10940 10938 10937 10933 10932 10932 10933 10934 10937 10940 10944 10947 10950 10953 10957 10959 10962 10966 10969
10973 10974 10976 10978 10979 10979 10982 10980 10981 10979 10979 10977 10976 10974 10973 10973 10969 10968 10966 10965 10962 10958 10955 10949 10945 10941 10939 10938 10937 10937 10937 10939 10941 10943 10945 10948 10952 10956 10959 10961 10964 10968 10971
10973 10974 10975 10976 10978 10978 10979 10979 10977 10978 10978 10978 10977 10977 10975 10974 10973 10971 10970 10968 10966 10963 10960 10955 10951 10947 10944 10943 10942 10942 10942 10942 10943 10945 10947 10950 10953 10957 10961 10964 10967 10970 10974
10972 10973 10973 10974 10975 10976 10976 10976 10975 10977 10978 10978 10978 10978 10977 10976 10975 10975 10973 10971 10969 10967 10964 10961 10958 10954 10950 10948 10947 10947 10947 10947 10948 10948 10950 10952 10955 10958 10962 10966 10969 10972 10975
10971 10971 10972 10972 10973 10973 10974 10975 10975 10976 10977 10978 10977 10978 10978 10977 10976 10975 10974 10973 10972 10970 10969 10967 10965 10962 10958 10954 10953 10952 10952 10952 10953 10953 10955 10958 10960 10963 10965 10968 10971 10974 10977
10970 10970 10969 10969 10970 10971 10972 10974 10974 10975 10975 10975 10976 10977 10977 10977 10977 10977 10975 10975 10975 10972 10971 10970 10969 10967 10965 10962 10959 10958 10958 10957 10958 10959 10960 10962 10965 10968 10970 10973 10975 10977 10979
10966 10967 10968 10967 10967 10968 10970 10971 10972 10973 10973 10973 10974 10974 10975 10975 10976 10975 10974 10976 10975 10973 10972 10972 10971 10970 10970 10969 10967 10965 10964 10964 10964 10964 10966 10967 10969 10972 10974 10977 10981 10984 10985
10964 10964 10964 10965 10965 10966 10968 10969 10970 10970 10970 10969 10970 10972 10973 10973 10974 10974 10973 10973 10973 10972 10971 10972 10972 10972 10972 10972 10972 10972 10971 10971 10971 10971 10971 10972 10974 10976 10978 10980 10984 10988 10991
10961 10961 10962 10962 10961 10962 10964 10964 10965 10964 10964 10964 10966 10967 10969 10969 10970 10972 10972 10971 10971 10972 10972 10971 10971 10972 10972 10973 10974 10975 10976 10976 10976 10976 10977 10978 10979 10981 10983 10985 10988 10991 10993
10959 10959 10959 10959 10959 10961 10961 10962 10962 10961 10960 10959 10960 10962 10963 10965 10966 10968 10968 10970 10970 10968 10970 10970 10970 10970 10971 10972 10973 10975 10977 10978 10979 10979 10980 10980 10981 10983 10985 10986 10989 10991 10994
10955 10955 10956 10956 10957 10958 10958 10958 10958 10958 10957 10956 10955 10956 10956 10958 10960 10961 10963 10964 10966 10967 10966 10967 10967 10968 10969 10970 10971 10972 10974 10977 10979 10980 10980 10981 10982 10984 10984 10986 10987 10989 10992
10951 10951 10952 10952 10952 10953 10953 10954 10953 10953 10953 10953 10953 10952 10952 10952 10954 10956 10957 10958 10959 10962 10964 10964 10964 10965 10966 10967 10968 10970 10971 10974 10976 10978 10979 10980 10981 10982 10984 10985 10987 10988 10990
10946 10947 10947 10947 10947 10946 10946 10945 10945 10945 10945 10946 10947 10947 10948 10949 10950 10950 10951 10951 10953 10954 10957 10959 10960 10961 10962 10964 10965 10966 10968 10970 10972 10974 10975 10976 10978 10979 10981 10982 10984 10985 10986
10940 10940 10940 10940 10940 10939 10938 10939 10939 10938 10936 10936 10939 10940 10942 10942 10944 10944 10944 10945 10946 10947 10948 10950 10953 10955 10956 10958 10960 10961 10963 10965 10967 10969 10971 10973 10974 10975 10977 10979 10980 10981 10983
10933 10933 10932 10932 10932 10932 10931 10930 10930 10930 10929 10929 10929 10931 10932 10934 10935 10937 10937 10938 10939 10939 10939 10940 10943 10947 10949 10951 10953 10955 10956 10959 10961 10963 10965 10967 10969 10971 10972 10974 10975 10976 10977
10925 10924 10924 10923 10921 10920 10920 10920 10921 10920 10918 10918 10919 10921 10921 10921 10924 10926 10927 10928 10931 10931 10931 10931 10932 10936 10940 10943 10944 10947 10949 10951 10955 10958 10960 10961 10962 10964 10965 10967 10968 10969 10970
10916 10914 10913 10912 10911 10909 10909 10908 10910 10909 10907 10906 10906 10906 10908 10909 10910 10913 10915 10917 10919 10921 10921 10922 10924 10925 10929 10933 10936 10938 10940 10944 10947 10951 10953 10955 10956 10956 10958 10961 10961 10962 10962
10904 10903 10902 10901 10899 10896 10896 10896 10896 10895 10894 10894 10894 10894 10893 10895 10897 10898 10900 10905 10908 10909 10910 10912 10912 10914 10917 10920 10925 10928 10932 10933 10937 10941 10944 10947 10948 10950 10951 10953 10953 10953 10954
10888 10887 10886 10885 10884 10882 10881 10880 10880 10880 10880 10879 10878 10878 10878 10879 10881 10882 10884 10888 10891 10894 10896 10899 10901 10902 10905 10908 10910 10915 10919 10922 10925 10929 10932 10935 10938 10940 10943 10945 10946 10947 10947
10873 10872 10871 10869 10868 10864 10864 10862 10864 10864 10863 10862 10862 10862 10861 10861 10862 10867 10871 10872 10876 10878 10881 10884 10887 10890 10893 10895 10897 10900 10903 10911 10914 10917 10920 10923 10928 10931 10932 10934 10936 10939 10939
10854 10851 10850 10850 10847 10844 10843 10843 10844 10847 10845 10843 10842 10842 10841 10841 10841 10846 10852 10855 10858 10858 10866 10870 10874 10876 10881 10885 10886 10888 10891 10895 10902 10906 10909 10912 10917 10918 10920 10923 10926 10929 10930